General Leobardo C Ruiz International Airport
MMZC : rendu visible

Aérodrome :











RETROUVEZ-NOUS SUR...

 
LOGIN :

S'inscrire | Disclaimer

   EN    FR    IT 

 









Légende :    VFR   VFR Marginal   IFR   IFR Intensif   IFR Très Intensif
Visi : 
Plafond : 
>= 8 km
>= 3000ft
5 à 8 km
1000 à 3000 ft
1500m à 5 km
500 à 1000 ft
800 à 1500m
200 à 500 ft
< 800m
< 200 ft
Symboles :   Orages  Brouillard  Fortes neiges  Fortes précipitations  Vent > 20 kt






- Altitude de l'aérodrome : 7141 ft
- Code IATA : ZCL


MMZC - General Leobardo C Ruiz International

METARs EXPIRÉS :
  • 280640Z 35005KT 10SM SKC 09/M02 A3032

TAF TAF MMZC
Valide du 28 à 06h jusqu'au 29 à 12h UTC


280412Z 2806/2912 15008KT P6SM SCT100 TX22/2822Z TN06/2812Z
FM281800 15015KT P6SM SCT030 BKN100
FM290600 14007KT P6SM SCT100



MET'MAP, la Météo Aéronautique d'un coup d'oeil ! - Copyright ORBIFLY Décembre 2007 - Disclaimer

ORBIFLY MET'MAP TEAM :

Programmation & Développement : Alexandra Zaïnal
Sur une idée originale de : Baudouin d'Aumeries
Assistance à la programmation : Marc-Olivier Méhu
Soutien technique & logistique : Manuel Goepfert

Contact : metmap@orbifly.com




SOURCES & CREDITS :

   NOAA       Earth
Advisory